Flag for U.S.A. Weather past 2 weeks in El Monte, California, U.S.A.

Now
73 °F

Overcast.


Feels Like: 75 °F
Forecast: 66 / 83 °F
Wind: 5 mph from Southwest

Location: Fullerton Municipal Airport

Current Time: Sep 19, 2014 at 9:14:24 AM

Latest Report: Sep 19, 2014 at 8:53 AM


Visibility: 10 mi

Pressure: 29.90 "Hg

Humidity: 69%

Dew point: 62 °F

Location of El MonteLocation

Historic Weather in El Monte — Graph

°F

El Monte temperature yesterday

Maximum temperature yesterday: 84 °F (at 3:53 PM)
Minimum temperature yesterday: 69 °F (at 4:53 AM)
Average temperature yesterday: 75 °F

Past Weeks' High & Low Weather Summary

 TemperatureHumidityPressure
High104 °F (Sep 14, 2:53 PM)85% (Sep 5, 4:53 AM)29.91 "Hg (Sep 5, 4:53 AM)
Low65 °F (Sep 10, 6:53 AM)20% (Sep 9, 12:53 PM)29.66 "Hg (Sep 14, 2:53 PM)
Average80 °F54%29.79 "Hg
* Reported Sep 4 7:53 AM — Sep 19 7:53 AM, El Monte, Weather by CustomWeather, © 2014

Note: Actual official high and low records may vary slightly from our data, if they occured in-between our weather recording intervals... More about our weather records

Advertising

El Monte weather history for previous 24 hours

 ConditionsComfort  
Time TempWeatherWind HumidityBarometerVisibility
7:53 AM
Sep 19
72 °FOvercast.No wind73%29.88 "Hg10 mi
6:53 AM71 °FOvercast.No wind76%29.87 "Hg10 mi
5:53 AM70 °FOvercast.No wind79%29.86 "Hg10 mi
4:53 AM71 °FOvercast.No wind76%29.86 "Hg10 mi
3:53 AM70 °FOvercast.No wind79%29.86 "Hg10 mi
2:53 AM70 °FMostly cloudy.No wind79%29.85 "Hg10 mi
1:53 AM69 °FClear.No wind76%29.85 "Hg10 mi
12:53 AM70 °FClear.No wind73%29.85 "Hg10 mi
11:53 PM
Sep 18
71 °FClear.3 mph71%29.85 "Hg10 mi
10:53 PM71 °FClear.5 mph73%29.85 "Hg10 mi
9:53 PM71 °FClear.5 mph73%29.85 "Hg10 mi
8:53 PM72 °FClear.6 mph68%29.84 "Hg10 mi
7:53 PM73 °FSunny.6 mph74%29.82 "Hg10 mi
6:53 PM76 °FSunny.8 mph67%29.80 "Hg10 mi
5:53 PM79 °FSunny.8 mph58%29.79 "Hg10 mi
4:53 PM83 °FSunny.7 mph50%29.79 "Hg10 mi
3:53 PM84 °FSunny.6 mph53%29.79 "Hg10 mi
2:53 PM83 °FSunny.10 mph53%29.80 "Hg10 mi
1:53 PM82 °FSunny.9 mph55%29.83 "Hg10 mi
12:53 PM81 °FPassing clouds.6 mph54%29.85 "Hg10 mi
11:53 AM80 °FPassing clouds.6 mph56%29.86 "Hg10 mi
10:53 AM80 °FSunny.7 mph51%29.88 "Hg10 mi
9:53 AM77 °FPassing clouds.6 mph56%29.88 "Hg10 mi
Weather by CustomWeather, © 2014

See weather overviewHow to use our weather pages